EW2067 Weather Reports


Display with metric or nautical units.
time (UTC)temp
F
wind
direction
speed
MPH
gust
MPH
rain 1hr
in
rain 24hr
in
rain mn
in
humidity
%
barometer
mb
20260906233255 81 204 0.0 0.0 0.00 0.00 0.00 33 1013.6
20260906232749 80 205 0.0 0.0 0.00 0.00 0.00 32 1013.6
20260906232244 80 205 0.0 0.0 0.00 0.00 0.00 34 1013.7
20260906231737 81 205 0.0 0.0 0.00 0.00 0.00 33 1013.7
20260906231232 81 207 0.0 0.0 0.00 0.00 0.00 31 1013.8
20260906230726 81 207 0.0 0.0 0.00 0.00 0.00 32 1013.9
20260906230220 81 206 0.0 0.0 0.00 0.00 0.00 30 1013.9
20260906225713 81 240 0.0 0.0 0.00 0.00 0.00 32 1014.0
20260906225208 81 216 0.0 0.0 0.00 0.00 0.00 31 1014.0
20260906224701 81 221 0.0 0.0 0.00 0.00 0.00 31 1014.0
20260906224155 81 206 0.0 0.0 0.00 0.00 0.00 31 1014.0
20260906223650 81 213 0.0 0.0 0.00 0.00 0.00 31 1014.0
20260906223144 81 228 0.0 0.0 0.00 0.00 0.00 30 1014.0
20260906222637 81 218 0.0 0.0 0.00 0.00 0.00 31 1014.0
20260906222132 82 223 0.0 0.0 0.00 0.00 0.00 30 1014.0
20260906221625 82 214 0.0 0.0 0.00 0.00 0.00 30 1014.0
20260906221119 82 213 0.0 0.0 0.00 0.00 0.00 31 1014.1
20260906220613 82 210 0.0 0.0 0.00 0.00 0.00 31 1014.2
20260906220107 82 201 0.0 0.0 0.00 0.00 0.00 30 1014.1
20260906215602 82 206 0.0 0.0 0.00 0.00 0.00 29 1014.1
20260906215055 82 208 0.0 0.0 0.00 0.00 0.00 30 1014.1
20260906214550 83 219 0.0 0.0 0.00 0.00 0.00 31 1014.0
20260906214043 83 222 0.0 0.0 0.00 0.00 0.00 31 1013.9
20260906213537 83 227 0.0 0.0 0.00 0.00 0.00 29 1014.0
20260906213031 82 218 0.0 0.0 0.00 0.00 0.00 30 1014.1
20260906212526 82 211 0.0 0.0 0.00 0.00 0.00 31 1014.0
20260906212019 82 211 0.0 0.0 0.00 0.00 0.00 30 1014.1
20260906211513 82 209 0.0 0.0 0.00 0.00 0.00 31 1014.1
20260906211007 82 216 0.0 0.0 0.00 0.00 0.00 31 1014.2
20260906210501 82 219 0.0 0.0 0.00 0.00 0.00 30 1014.2
20260906205955 82 197 0.0 0.0 0.00 0.00 0.00 28 1014.1
20260906205449 83 179 0.0 0.0 0.00 0.00 0.00 30 1014.2
20260906204943 83 181 0.0 0.0 0.00 0.00 0.00 29 1014.2
20260906204437 82 202 0.0 0.0 0.00 0.00 0.00 29 1014.4
20260906203931 82 187 0.0 0.0 0.00 0.00 0.00 30 1014.4
20260906203425 82 180 0.0 0.0 0.00 0.00 0.00 31 1014.5
20260906202919 82 192 0.0 0.0 0.00 0.00 0.00 29 1014.5
20260906202413 82 207 0.0 0.0 0.00 0.00 0.00 28 1014.6
20260906201907 82 219 0.0 0.0 0.00 0.00 0.00 27 1014.7
20260906201401 82 216 0.0 0.0 0.00 0.00 0.00 27 1014.8
20260906200855 81 186 0.0 0.0 0.00 0.00 0.00 29 1015.0
20260906200349 81 221 0.0 0.0 0.00 0.00 0.00 29 1015.1
20260906195843 81 226 0.0 0.0 0.00 0.00 0.00 28 1015.1
20260906195337 80 215 0.0 0.0 0.00 0.00 0.00 30 1015.2
20260906194831 80 208 0.0 0.0 0.00 0.00 0.00 28 1015.2
20260906194325 80 227 0.0 0.0 0.00 0.00 0.00 30 1015.4
20260906193819 80 216 0.0 0.0 0.00 0.00 0.00 29 1015.4
20260906193313 81 218 0.0 0.0 0.00 0.00 0.00 28 1015.2
20260906192807 81 214 0.0 0.0 0.00 0.00 0.00 28 1015.2
20260906192301 81 215 0.0 0.0 0.00 0.00 0.00 27 1015.2
20260906191755 82 218 0.0 0.0 0.00 0.00 0.00 26 1015.2
20260906191249 82 228 0.0 0.0 0.00 0.00 0.00 28 1015.2
20260906190743 82 227 0.0 0.0 0.00 0.00 0.00 29 1015.2
20260906190237 82 210 0.0 0.0 0.00 0.00 0.00 27 1015.3
20260906185731 82 227 0.0 0.0 0.00 0.00 0.00 28 1015.3
20260906185225 81 206 0.0 0.0 0.00 0.00 0.00 29 1015.4
20260906184719 81 209 0.0 0.0 0.00 0.00 0.00 25 1015.4
20260906184213 81 223 0.0 0.0 0.00 0.00 0.00 29 1015.6
20260906183707 81 213 0.0 0.0 0.00 0.00 0.00 26 1015.6
20260906183201 81 224 0.0 0.0 0.00 0.00 0.00 28 1015.6
20260906182655 81 207 0.0 0.0 0.00 0.00 0.00 27 1015.7
20260906182149 81 197 0.0 0.0 0.00 0.00 0.00 28 1015.7
20260906181643 81 217 0.0 0.0 0.00 0.00 0.00 28 1015.8
20260906181137 80 224 0.0 0.0 0.00 0.00 0.00 28 1015.8
20260906180631 80 204 0.0 0.0 0.00 0.00 0.00 27 1016.0
20260906180125 80 216 0.0 0.0 0.00 0.00 0.00 29 1016.0
20260906175619 80 211 0.0 0.0 0.00 0.00 0.00 27 1016.2
20260906175113 80 211 0.0 0.0 0.00 0.00 0.00 28 1016.2
20260906174607 80 226 0.0 0.0 0.00 0.00 0.00 28 1016.4
20260906174101 80 217 0.0 0.0 0.00 0.00 0.00 28 1016.5
20260906173555 80 203 0.0 0.0 0.00 0.00 0.00 26 1016.6
20260906173049 79 211 0.0 0.0 0.00 0.00 0.00 26 1016.6
20260906172543 79 223 0.0 0.0 0.00 0.00 0.00 26 1016.6
20260906172037 79 210 0.0 0.0 0.00 0.00 0.00 27 1016.6
20260906171531 79 206 0.0 0.0 0.00 0.00 0.00 29 1016.6
20260906171025 79 211 0.0 0.0 0.00 0.00 0.00 27 1016.7
20260906170519 79 213 0.0 0.0 0.00 0.00 0.00 26 1016.7
20260906170013 79 205 0.0 0.0 0.00 0.00 0.00 27 1016.7
20260906165507 79 199 0.0 0.0 0.00 0.00 0.00 28 1016.7
20260906165001 79 200 0.0 0.0 0.00 0.00 0.00 28 1016.8
20260906164455 78 200 0.0 0.0 0.00 0.00 0.00 28 1016.6
20260906163949 78 215 0.0 0.0 0.00 0.00 0.00 28 1016.7
20260906163443 78 214 0.0 0.0 0.00 0.00 0.00 30 1016.8
20260906162937 78 213 0.0 0.0 0.00 0.00 0.00 30 1016.8
20260906162431 78 214 0.0 0.0 0.00 0.00 0.00 30 1016.8
20260906161925 77 219 0.0 0.0 0.00 0.00 0.00 32 1016.9
20260906161419 77 230 0.0 0.0 0.00 0.00 0.00 32 1016.8
20260906160913 77 206 0.0 0.0 0.00 0.00 0.00 31 1016.9
20260906160407 77 192 0.0 0.0 0.00 0.00 0.00 33 1017.0
20260906155901 77 174 0.0 0.0 0.00 0.00 0.00 38 1017.0
20260906155355 76 135 0.0 0.0 0.00 0.00 0.00 33 1017.0
20260906154849 75 135 0.0 0.0 0.00 0.00 0.00 39 1017.1
20260906154343 75 135 0.0 0.0 0.00 0.00 0.00 34 1017.1
20260906153837 74 136 0.0 0.0 0.00 0.00 0.00 34 1017.2
20260906153331 73 193 0.0 0.0 0.00 0.00 0.00 36 1017.3
20260906152825 72 193 0.0 0.0 0.00 0.00 0.00 35 1017.3
20260906152319 72 193 0.0 0.0 0.00 0.00 0.00 37 1017.3
20260906151813 70 193 0.0 0.0 0.00 0.00 0.00 38 1017.3
20260906151307 70 193 0.0 0.0 0.00 0.00 0.00 41 1017.4
20260906150801 69 193 0.0 0.0 0.00 0.00 0.00 42 1017.4
20260906150255 68 193 0.0 0.0 0.00 0.00 0.00 41 1017.4
20260906145749 68 187 0.0 0.0 0.00 0.00 0.00 40 1017.4
20260906145243 68 171 0.0 0.0 0.00 0.00 0.00 38 1017.4
20260906144737 67 150 0.0 0.0 0.00 0.00 0.00 40 1017.4
20260906144231 66 150 0.0 0.0 0.00 0.00 0.00 43 1017.4
20260906143725 65 150 0.0 0.0 0.00 0.00 0.00 40 1017.4
20260906143219 65 149 0.0 0.0 0.00 0.00 0.00 44 1017.4
20260906142713 64 149 0.0 0.0 0.00 0.00 0.00 44 1017.5
20260906142207 64 148 0.0 0.0 0.00 0.00 0.00 43 1017.5
20260906141701 65 146 0.0 0.0 0.00 0.00 0.00 39 1017.4
20260906141155 64 146 0.0 0.0 0.00 0.00 0.00 40 1017.5
20260906140649 64 147 0.0 0.0 0.00 0.00 0.00 41 1017.5
20260906140143 63 146 0.0 0.0 0.00 0.00 0.00 39 1017.6
20260906135637 63 146 0.0 0.0 0.00 0.00 0.00 41 1017.5
20260906135131 63 139 0.0 0.0 0.00 0.00 0.00 39 1017.5
20260906134625 62 160 0.0 0.0 0.00 0.00 0.00 40 1017.5
20260906134119 61 192 0.0 0.0 0.00 0.00 0.00 41 1017.5
20260906133613 61 192 0.0 0.0 0.00 0.00 0.00 41 1017.6
20260906133107 62 158 0.0 0.0 0.00 0.00 0.00 39 1017.6
20260906132601 63 157 0.0 0.0 0.00 0.00 0.00 38 1017.5
20260906132055 63 132 0.0 0.0 0.00 0.00 0.00 37 1017.4
20260906131549 62 149 0.0 0.0 0.00 0.00 0.00 37 1017.3
20260906131043 62 149 0.0 0.0 0.00 0.00 0.00 37 1017.2
20260906130537 62 142 0.0 0.0 0.00 0.00 0.00 37 1017.2
20260906130031 62 153 0.0 0.0 0.00 0.00 0.00 37 1017.3
20260906125525 62 145 0.0 0.0 0.00 0.00 0.00 37 1017.3
20260906125019 62 158 0.0 0.0 0.00 0.00 0.00 37 1017.3
20260906124513 62 156 0.0 0.0 0.00 0.00 0.00 37 1017.3
20260906124007 62 155 0.0 0.0 0.00 0.00 0.00 37 1017.3
20260906123501 63 144 0.0 0.0 0.00 0.00 0.00 36 1017.2
20260906122955 63 136 0.0 0.0 0.00 0.00 0.00 36 1017.2
20260906122449 63 158 0.0 0.0 0.00 0.00 0.00 35 1017.2
20260906121943 63 131 0.0 0.0 0.00 0.00 0.00 34 1017.1
20260906121437 63 139 0.0 0.0 0.00 0.00 0.00 34 1017.2
20260906120931 64 147 0.0 0.0 0.00 0.00 0.00 34 1017.2
20260906120425 64 152 0.0 0.0 0.00 0.00 0.00 34 1017.2
20260906115919 64 143 0.0 0.0 0.00 0.00 0.00 33 1017.1
20260906115413 64 136 0.0 0.0 0.00 0.00 0.00 33 1017.1
20260906114907 65 137 0.0 0.0 0.00 0.00 0.00 33 1017.2
20260906114401 65 139 0.0 0.0 0.00 0.00 0.00 32 1017.1
20260906113855 64 139 0.0 0.0 0.00 0.00 0.00 33 1017.1
20260906113349 64 137 0.0 0.0 0.00 0.00 0.00 33 1017.1
20260906112843 64 130 0.0 0.0 0.00 0.00 0.00 34 1017.1
20260906112337 63 161 0.0 0.0 0.00 0.00 0.00 35 1017.2
20260906111831 62 167 0.0 0.0 0.00 0.00 0.00 36 1017.2
20260906111325 62 187 0.0 0.0 0.00 0.00 0.00 37 1017.2
20260906110819 62 191 0.0 0.0 0.00 0.00 0.00 37 1017.2
20260906110313 62 196 0.0 0.0 0.00 0.00 0.00 37 1017.3
20260906105807 62 196 0.0 0.0 0.00 0.00 0.00 38 1017.2
20260906105305 63 200 0.0 0.0 0.00 0.00 0.00 37 1017.1
20260906104755 64 158 0.0 0.0 0.00 0.00 0.00 35 1017.1
20260906104249 66 170 0.0 0.0 0.00 0.00 0.00 33 1017.1
20260906103743 66 137 0.0 0.0 0.00 0.00 0.00 32 1017.0
20260906103237 66 136 0.0 0.0 0.00 0.00 0.00 31 1017.0
20260906102731 66 138 0.0 0.0 0.00 0.00 0.00 32 1017.0
20260906102225 66 122 0.0 0.0 0.00 0.00 0.00 32 1017.0
20260906101719 67 128 0.0 0.0 0.00 0.00 0.00 31 1016.9
20260906101213 67 127 0.0 0.0 0.00 0.00 0.00 31 1016.9
20260906100707 67 128 0.0 0.0 0.00 0.00 0.00 31 1016.9
20260906100201 67 131 0.0 0.0 0.00 0.00 0.00 31 1016.8
20260906095655 67 128 0.0 0.0 0.00 0.00 0.00 32 1016.8
20260906095149 66 133 0.0 0.0 0.00 0.00 0.00 31 1016.8
20260906094643 66 129 0.0 0.0 0.00 0.00 0.00 32 1016.7
20260906094137 65 137 0.0 0.0 0.00 0.00 0.00 32 1016.7
20260906093631 65 124 0.0 0.0 0.00 0.00 0.00 33 1016.7
20260906093125 65 149 0.0 0.0 0.00 0.00 0.00 32 1016.6
20260906092619 65 157 0.0 0.0 0.00 0.00 0.00 32 1016.6
20260906092113 66 140 0.0 0.0 0.00 0.00 0.00 32 1016.5
20260906091607 66 144 0.0 0.0 0.00 0.00 0.00 31 1016.5
20260906091101 66 149 0.0 0.0 0.00 0.00 0.00 31 1016.4
20260906090555 66 141 0.0 0.0 0.00 0.00 0.00 32 1016.4
20260906090049 66 145 0.0 0.0 0.00 0.00 0.00 31 1016.4
20260906085543 66 142 0.0 0.0 0.00 0.00 0.00 31 1016.3
20260906085037 66 143 0.0 0.0 0.00 0.00 0.00 31 1016.3
20260906084531 66 137 0.0 0.0 0.00 0.00 0.00 31 1016.3
20260906084025 66 151 0.0 0.0 0.00 0.00 0.00 32 1016.2
20260906083519 66 154 0.0 0.0 0.00 0.00 0.00 31 1016.2
20260906083013 67 142 0.0 0.0 0.00 0.00 0.00 30 1016.2
20260906082507 67 143 0.0 0.0 0.00 0.00 0.00 30 1016.3
20260906082001 68 144 0.0 0.0 0.00 0.00 0.00 30 1016.2
20260906081455 68 133 0.0 0.0 0.00 0.00 0.00 28 1016.3
20260906080949 69 133 0.0 0.0 0.00 0.00 0.00 28 1016.3
20260906080443 69 139 0.0 0.0 0.00 0.00 0.00 28 1016.3
20260906075937 68 138 0.0 0.0 0.00 0.00 0.00 28 1016.3
20260906075431 68 139 0.0 0.0 0.00 0.00 0.00 29 1016.3
20260906074925 69 142 0.0 0.0 0.00 0.00 0.00 29 1016.4
20260906074419 69 137 0.0 0.0 0.00 0.00 0.00 28 1016.3
20260906073913 69 134 0.0 0.0 0.00 0.00 0.00 29 1016.3
20260906073407 69 144 0.0 0.0 0.00 0.00 0.00 28 1016.3
20260906072901 68 137 0.0 0.0 0.00 0.00 0.00 29 1016.4
20260906072355 69 164 0.0 0.0 0.00 0.00 0.00 29 1016.3
20260906071849 68 131 0.0 0.0 0.00 0.00 0.00 28 1016.2
20260906071343 68 135 0.0 0.0 0.00 0.00 0.00 30 1016.2
20260906070837 68 159 0.0 0.0 0.00 0.00 0.00 30 1016.3
20260906070331 69 143 0.0 0.0 0.00 0.00 0.00 29 1016.3
20260906065825 69 140 0.0 0.0 0.00 0.00 0.00 29 1016.3
20260906065319 69 136 0.0 0.0 0.00 0.00 0.00 29 1016.3
20260906064813 68 126 0.0 0.0 0.00 0.00 0.00 30 1016.3
20260906064307 67 148 0.0 0.0 0.00 0.00 0.00 31 1016.3
20260906063801 66 169 0.0 0.0 0.00 0.00 0.00 33 1016.2
20260906063255 66 163 0.0 0.0 0.00 0.00 0.00 34 1016.3
20260906062749 66 182 0.0 0.0 0.00 0.00 0.00 34 1016.3
20260906062243 67 173 0.0 0.0 0.00 0.00 0.00 33 1016.3
20260906061737 67 159 0.0 0.0 0.00 0.00 0.00 32 1016.3
20260906061231 66 164 0.0 0.0 0.00 0.00 0.00 33 1016.3
20260906060725 66 170 0.0 0.0 0.00 0.00 0.00 34 1016.4
20260906060219 66 174 0.0 0.0 0.00 0.00 0.00 34 1016.4
20260906055713 64 184 0.0 0.0 0.00 0.00 0.00 37 1016.4
20260906055207 64 165 0.0 0.0 0.00 0.00 0.00 39 1016.4
20260906054701 64 172 0.0 0.0 0.00 0.00 0.00 37 1016.4
20260906054155 65 183 0.0 0.0 0.00 0.00 0.00 36 1016.4
20260906053649 65 202 0.0 0.0 0.00 0.00 0.00 37 1016.4
20260906053143 66 212 0.0 0.0 0.00 0.00 0.00 36 1016.3
20260906052637 66 217 0.0 0.0 0.00 0.00 0.00 35 1016.4
20260906052131 66 236 0.0 0.0 0.00 0.00 0.00 34 1016.4
20260906051625 66 247 0.0 0.0 0.00 0.00 0.00 34 1016.3
20260906051119 66 249 0.0 0.0 0.00 0.00 0.00 35 1016.3
20260906050613 66 214 0.0 0.0 0.00 0.00 0.00 36 1016.3
20260906050107 66 212 0.0 0.0 0.00 0.00 0.00 37 1016.2
20260906045601 66 186 0.0 0.0 0.00 0.00 0.00 35 1016.2
20260906045055 67 174 0.0 0.0 0.00 0.00 0.00 35 1016.2
20260906044549 67 163 0.0 0.0 0.00 0.00 0.00 33 1016.2
20260906044043 66 168 0.0 0.0 0.00 0.00 0.00 35 1016.2
20260906043537 67 157 0.0 0.0 0.00 0.00 0.00 35 1016.2
20260906043031 68 150 0.0 0.0 0.00 0.00 0.00 33 1016.1
20260906042525 69 174 0.0 0.0 0.00 0.00 0.00 32 1016.1
20260906042019 71 163 0.0 0.0 0.00 0.00 0.00 30 1016.1
20260906041513 71 161 0.0 0.0 0.00 0.00 0.00 29 1016.1
20260906041007 70 160 0.0 0.0 0.00 0.00 0.00 29 1016.1
20260906040501 70 163 0.0 0.0 0.00 0.00 0.00 30 1016.0
20260906035955 71 164 0.0 0.0 0.00 0.00 0.00 29 1016.1
20260906035449 70 152 0.0 0.0 0.00 0.00 0.00 31 1016.1
20260906034943 69 158 0.0 0.0 0.00 0.00 0.00 34 1016.0
20260906034437 70 162 0.0 0.0 0.00 0.00 0.00 34 1015.9
20260906033931 70 157 0.0 0.0 0.00 0.00 0.00 34 1015.9
20260906033425 68 160 0.0 0.0 0.00 0.00 0.00 35 1015.9
20260906032919 67 176 0.0 0.0 0.00 0.00 0.00 40 1015.9
20260906032413 66 179 0.0 0.0 0.00 0.00 0.00 41 1015.9
20260906031907 67 185 0.0 0.0 0.00 0.00 0.00 41 1015.9
20260906031401 66 201 0.0 0.0 0.00 0.00 0.00 42 1015.9
20260906030855 66 194 0.0 0.0 0.00 0.00 0.00 45 1015.9
20260906030349 67 205 0.0 0.0 0.00 0.00 0.00 45 1015.8
20260906025843 66 219 0.0 0.0 0.00 0.00 0.00 44 1015.8
20260906025337 66 220 0.0 0.0 0.00 0.00 0.00 46 1015.7
20260906024831 66 220 0.0 0.0 0.00 0.00 0.00 47 1015.6
20260906024325 67 220 0.0 0.0 0.00 0.00 0.00 46 1015.6
20260906023819 68 230 0.0 0.0 0.00 0.00 0.00 45 1015.5
20260906023313 69 230 0.0 0.0 0.00 0.00 0.00 45 1015.4
20260906022807 70 230 0.0 0.0 0.00 0.00 0.00 44 1015.3
20260906022301 71 230 0.0 0.0 0.00 0.00 0.00 41 1015.2
20260906021755 72 230 0.0 0.0 0.00 0.00 0.00 41 1015.2
20260906021249 74 230 0.0 0.0 0.00 0.00 0.00 37 1015.2
20260906020743 77 230 0.0 0.0 0.00 0.00 0.00 33 1015.2
20260906020237 78 230 0.0 0.0 0.00 0.00 0.00 27 1015.1
20260906015731 79 230 0.0 0.0 0.00 0.00 0.00 27 1015.1
20260906015225 79 230 0.0 0.0 0.00 0.00 0.00 27 1015.2
20260906014719 80 230 0.0 0.0 0.00 0.00 0.00 26 1015.2
20260906014213 81 230 0.0 0.0 0.00 0.00 0.00 25 1015.2
20260906013707 81 230 0.0 0.0 0.00 0.00 0.00 24 1015.2
20260906013201 82 230 0.0 0.0 0.00 0.00 0.00 23 1015.2
20260906012655 82 230 0.0 0.0 0.00 0.00 0.00 21 1015.3
20260906012149 82 230 0.0 0.0 0.00 0.00 0.00 21 1015.2
20260906011643 82 230 0.0 0.0 0.00 0.00 0.00 22 1015.2
20260906011137 83 230 0.0 0.0 0.00 0.00 0.00 23 1015.3
20260906010631 83 230 0.0 0.0 0.00 0.00 0.00 23 1015.3
20260906010125 83 230 0.0 0.0 0.00 0.00 0.00 22 1015.3
20260906005619 84 230 0.0 0.0 0.00 0.00 0.00 21 1015.3
20260906005113 84 230 0.0 0.0 0.00 0.00 0.00 21 1015.3
20260906004607 83 230 0.0 0.0 0.00 0.00 0.00 22 1015.2
20260906004101 84 232 0.0 0.0 0.00 0.00 0.00 21 1015.1
20260906003555 84 234 0.0 0.0 0.00 0.00 0.00 21 1015.1
20260906003049 84 226 0.0 0.0 0.00 0.00 0.00 21 1015.1
20260906002543 84 224 0.0 0.0 0.00 0.00 0.00 21 1015.0
20260906002037 85 233 0.0 0.0 0.00 0.00 0.00 21 1015.0
20260906001531 85 233 0.0 0.0 0.00 0.00 0.00 21 1015.0
20260906001025 85 228 0.0 0.0 0.00 0.00 0.00 20 1014.9
20260906000519 85 229 0.0 0.0 0.00 0.00 0.00 20 1014.9
20260906000013 85 219 0.0 0.0 0.00 0.00 0.00 21 1015.0
20260905235507 86 217 0.0 0.0 0.00 0.00 0.00 22 1014.9
20260905235001 86 215 0.0 0.0 0.00 0.00 0.00 20 1014.9
20260905234455 86 224 0.0 0.0 0.00 0.00 0.00 19 1015.0
20260905233949 85 208 0.0 0.0 0.00 0.00 0.00 19 1015.0